Powrót do katalogu

COSMOS 2251 DEB

AktywnyLEO
NORAD 35022·DEBRIS·🇷🇺 Russia

Wystrzelony Jun 16, 1993 z Plesetsk Cosmodrome

Loading…

Następne Przeloty (najbliższe 24 godziny)

TLE

NieaktualneSource: Space-Track

Epoka: Sep 7, 2026, 11:56 UTC

1 35022U 93036AGK 26250.49769748  .00001080  00000-0  21902-3 0  9998
2 35022  74.0251 167.5861 0047913 296.0334  63.5903 14.61809518630691

Śledź COSMOS 2251 DEB w czasie rzeczywistym z AllMySat

Download on the App Store